Rochester, NY

11:01 PM EDT on March 27, 2017 (GMT -0400)
Greater Rochester International

Weather History for KROC - November, 2014

Change the Weather History Date:

Sunday, November 30, 2014

  Actual Average Record
Temperature  
Mean Temperature 51 °F 35 °F  
Max Temperature 61 °F 42 °F 70 °F (2006)
Min Temperature 41 °F 29 °F 1 °F (1875)
Degree Days  
Heating Degree Days 14 30  
Month to date heating degree days 783 735  
Since 1 July heating degree days 1280 1368  
Cooling Degree Days 0 0  
Month to date cooling degree days 0 0  
Year to date cooling degree days 542 539  
Moisture  
Dew Point 43 °F    
Average Humidity 64    
Maximum Humidity 72    
Minimum Humidity 56    
Precipitation  
Precipitation 0.12 in 0.10 in 1.52 in (1927)
Month to date precipitation 2.41 2.94  
Year to date precipitation 30.66 31.64  
Snow  
Snow 0.00 in 0.40 in 6.40 in (1983)
Month to date snowfall 9.1 7.3  
Since 1 July snowfall 9.1 7.4  
Since 1 September snowfall 9.1 7.4  
Snow Depth 0.00 in    
Sea Level Pressure  
Sea Level Pressure 29.85 in    
Wind  
Wind Speed 13 mph (SW)    
Max Wind Speed 22 mph    
Max Gust Speed 28 mph    
Visibility 9 miles    
Events Rain    
T = Trace of Precipitation, MM = Missing Value Source: NWS Daily Summary

Daily Weather History Graph

Daily Weather History Graph

Search for Another Location

Airport or City:

Trip Planner

Search our weather history database for the weather conditions in past years. The results will help you decide how hot, cold, wet, or windy it might be!

Date:

Astronomy

Nov. 30, 2014 Rise Set
Actual Time 7:21 AM EST 4:37 PM EST
Civil Twilight 6:49 AM EST 5:08 PM EST
Nautical Twilight 6:14 AM EST 5:44 PM EST
Astronomical Twilight 5:40 AM EST 6:18 PM EST
Moon 1:14 PM EST (11/30) 12:39 AM EST (11/30)
Length of Visible Light 10h 19m
Length of Day
9h 15m
Waxing Gibbous, 64% of the Moon is Illuminated
Nov 30
Waxing Gibbous
Dec 6
Full
Dec 14
Last Quarter
Dec 21
New
Dec 28
First Quarter

Hourly Weather History & Observations

Time (EST) Temp. Windchill Dew Point Humidity Pressure Visibility Wind Dir Wind Speed Gust Speed Precip Events Conditions
12:54 AM 42.1 °F 35.7 °F 28.9 °F 60% 29.89 in 10.0 mi SSW 11.5 mph - N/A   Overcast
1:54 AM 43.0 °F 35.7 °F 30.0 °F 60% 29.89 in 10.0 mi SSW 15.0 mph - N/A   Overcast
2:54 AM 45.0 °F 38.2 °F 30.9 °F 58% 29.88 in 10.0 mi SSW 15.0 mph 20.7 mph N/A   Overcast
3:54 AM 46.0 °F 40.2 °F 33.1 °F 61% 29.87 in 10.0 mi South 12.7 mph - N/A   Overcast
4:54 AM 48.0 °F - 34.0 °F 58% 29.86 in 10.0 mi SSW 13.8 mph - N/A   Overcast
5:54 AM 48.9 °F - 36.0 °F 61% 29.85 in 10.0 mi SSW 12.7 mph - N/A   Overcast
6:54 AM 50.0 °F - 37.0 °F 61% 29.85 in 10.0 mi SSW 16.1 mph 21.9 mph N/A   Overcast
7:54 AM 51.1 °F - 37.9 °F 61% 29.86 in 10.0 mi SSW 12.7 mph 25.3 mph N/A   Mostly Cloudy
8:54 AM 51.1 °F - 39.9 °F 66% 29.86 in 10.0 mi South 13.8 mph - N/A   Overcast
9:54 AM 54.0 °F - 41.0 °F 62% 29.85 in 10.0 mi SSW 17.3 mph 25.3 mph N/A   Mostly Cloudy
10:54 AM 55.9 °F - 43.0 °F 62% 29.84 in 10.0 mi SSW 16.1 mph 21.9 mph N/A   Overcast
11:54 AM 57.0 °F - 44.1 °F 62% 29.83 in 10.0 mi SSW 15.0 mph 21.9 mph N/A   Overcast
12:54 PM 57.0 °F - 45.0 °F 64% 29.81 in 10.0 mi SSW 10.4 mph - N/A   Overcast
1:54 PM 57.0 °F - 45.0 °F 64% 29.81 in 10.0 mi SSW 10.4 mph - N/A   Overcast
2:54 PM 57.9 °F - 46.0 °F 65% 29.81 in 10.0 mi SSW 12.7 mph - N/A   Overcast
3:54 PM 57.9 °F - 46.9 °F 67% 29.83 in 10.0 mi SSW 13.8 mph - N/A   Overcast
4:54 PM 57.9 °F - 46.9 °F 67% 29.83 in 10.0 mi SSW 12.7 mph - N/A   Overcast
5:54 PM 57.0 °F - 46.9 °F 69% 29.84 in 10.0 mi SSW 11.5 mph - N/A   Overcast
6:54 PM 57.9 °F - 46.9 °F 67% 29.84 in 10.0 mi SW 12.7 mph - N/A   Overcast
7:54 PM 57.9 °F - 48.0 °F 70% 29.84 in 10.0 mi SW 10.4 mph - 0.00 in   Overcast
8:54 PM 59.0 °F - 50.0 °F 72% 29.84 in 10.0 mi SW 9.2 mph - 0.00 in   Overcast
9:54 PM 59.0 °F - 50.0 °F 72% 29.84 in 10.0 mi SSW 8.1 mph - N/A   Overcast
10:39 PM 59.0 °F - 53.1 °F 81% 29.85 in 5.0 mi NW 15.0 mph - 0.02 in Rain Heavy Rain
10:43 PM 57.9 °F - 54.0 °F 87% 29.85 in 4.0 mi WNW 12.7 mph 20.7 mph 0.02 in Rain Rain
10:54 PM 57.0 °F - 54.0 °F 89% 29.88 in 4.0 mi WNW 16.1 mph 23.0 mph 0.03 in Rain Light Rain
11:54 PM 55.9 °F - 53.1 °F 90% 29.90 in 10.0 mi West 12.7 mph - 0.09 in   Overcast